Find KSM1-b

NORAD ID: 46914 Int'l Des: 2020-081 Owner: KLEOS Country: L operational
LEOCIRCULAR

Current View

Loading 3D Globe...

About KSM1-b

Description loading...

Upcoming Passes

Passes for default location (London). Set your location on the main map for personalized predictions.

Altitude History

Loading altitude history...

Two-Line Element Set

1 46914U 20081K 26150.15256097 .00009493 00000-0 38361-3 0 9993
2 46914 36.9009 179.4825 0004698 140.0440 220.0654 15.24238451309432
Epoch: May 30, 2026 • Age: 9 hours

Current Status

Altitude 504.3 km
Velocity 7.61 km/s
Sub-Earth Point -32.45°S, 39.44°E
Launch Date Nov 7, 2020
Age 5.5 years
Type other

Technical Details

Classification Payload
Mass 10.00 kg
Dry Mass 10.00 kg
Total Mass 10.00 kg
Length 0.30 m
Diameter 0.20 m
Span 0.30 m
Shape Box
Manufacturer GOMSP
Bus Type Cubesat 6U
Phase Status In Orbit
Owner/State KLEOS/L

Most Searched